Year,Month,Day,Hour,Minute,Value (Times are PST for windgust in km/hr)
2011,07,07,00,04,3.20
2011,07,07,00,05,4.80
2011,07,07,00,06,3.20
2011,07,07,00,10,1.60
2011,07,07,00,27,4.80
2011,07,07,00,28,4.80
2011,07,07,00,29,1.60
2011,07,07,00,30,4.80
2011,07,07,00,31,4.80
2011,07,07,00,32,4.80
2011,07,07,00,33,4.80
2011,07,07,00,34,1.60
2011,07,07,00,35,4.80
2011,07,07,00,36,4.80
2011,07,07,00,37,3.20
2011,07,07,00,38,3.20
2011,07,07,00,39,3.20
2011,07,07,00,40,3.20
2011,07,07,00,41,3.20
2011,07,07,00,42,1.60
2011,07,07,00,43,4.80
2011,07,07,00,44,4.80
2011,07,07,00,45,4.80
2011,07,07,00,46,4.80
2011,07,07,00,47,4.80
2011,07,07,00,48,6.40
2011,07,07,00,49,4.80
2011,07,07,00,50,4.80
2011,07,07,00,51,3.20
2011,07,07,00,52,6.40
2011,07,07,00,53,1.60
2011,07,07,00,54,1.60
2011,07,07,00,56,4.80
2011,07,07,00,57,3.20
2011,07,07,00,58,3.20
2011,07,07,00,59,3.20
2011,07,07,01,00,1.60
2011,07,07,01,02,6.40
2011,07,07,01,03,3.20
2011,07,07,01,05,1.60
2011,07,07,01,11,1.60
2011,07,07,01,13,4.80
2011,07,07,01,14,1.60
2011,07,07,01,15,1.60
2011,07,07,01,16,3.20
2011,07,07,01,17,4.80
2011,07,07,01,18,4.80
2011,07,07,01,19,1.60
2011,07,07,01,20,6.40
2011,07,07,01,21,4.80
2011,07,07,01,22,4.80
2011,07,07,01,23,4.80
2011,07,07,01,24,1.60
2011,07,07,01,26,3.20
2011,07,07,01,27,1.60
2011,07,07,01,28,1.60
2011,07,07,01,29,1.60
2011,07,07,01,35,1.60
2011,07,07,01,36,4.80
2011,07,07,01,37,1.60
2011,07,07,01,41,4.80
2011,07,07,01,42,3.20
2011,07,07,01,47,1.60
2011,07,07,01,57,1.60
2011,07,07,02,03,1.60
2011,07,07,02,05,1.60
2011,07,07,02,06,1.60
2011,07,07,02,08,3.20
2011,07,07,02,09,1.60
2011,07,07,02,10,3.20
2011,07,07,02,11,3.20
2011,07,07,02,12,3.20
2011,07,07,02,13,3.20
2011,07,07,02,14,4.80
2011,07,07,02,15,6.40
2011,07,07,02,16,4.80
2011,07,07,02,17,4.80
2011,07,07,02,18,4.80
2011,07,07,02,19,3.20
2011,07,07,02,20,6.40
2011,07,07,02,21,6.40
2011,07,07,02,22,6.40
2011,07,07,02,23,8.10
2011,07,07,02,24,6.40
2011,07,07,02,25,3.20
2011,07,07,02,26,1.60
2011,07,07,02,27,6.40
2011,07,07,02,28,6.40
2011,07,07,02,29,6.40
2011,07,07,02,30,4.80
2011,07,07,02,31,4.80
2011,07,07,02,32,3.20
2011,07,07,02,33,6.40
2011,07,07,02,34,3.20
2011,07,07,02,35,3.20
2011,07,07,02,36,3.20
2011,07,07,02,37,4.80
2011,07,07,02,38,4.80
2011,07,07,02,40,1.60
2011,07,07,02,41,3.20
2011,07,07,02,42,4.80
2011,07,07,02,43,6.40
2011,07,07,02,44,3.20
2011,07,07,02,45,6.40
2011,07,07,02,46,4.80
2011,07,07,02,47,3.20
2011,07,07,02,48,4.80
2011,07,07,02,49,3.20
2011,07,07,02,50,6.40
2011,07,07,02,51,3.20
2011,07,07,02,52,1.60
2011,07,07,02,53,4.80
2011,07,07,02,54,4.80
2011,07,07,02,55,6.40
2011,07,07,02,56,4.80
2011,07,07,02,57,6.40
2011,07,07,02,58,4.80
2011,07,07,02,59,1.60
2011,07,07,03,01,4.80
2011,07,07,03,02,4.80
2011,07,07,03,03,1.60
2011,07,07,03,04,4.80
2011,07,07,03,05,4.80
2011,07,07,03,06,1.60
2011,07,07,03,07,1.60
2011,07,07,03,08,1.60
2011,07,07,03,09,1.60
2011,07,07,03,12,1.60
2011,07,07,03,13,3.20
2011,07,07,03,14,4.80
2011,07,07,03,15,3.20
2011,07,07,03,16,4.80
2011,07,07,03,17,3.20
2011,07,07,03,18,1.60
2011,07,07,03,21,6.40
2011,07,07,03,22,6.40
2011,07,07,03,23,11.30
2011,07,07,03,24,9.60
2011,07,07,03,25,9.60
2011,07,07,03,26,9.60
2011,07,07,03,27,6.40
2011,07,07,03,28,4.80
2011,07,07,03,29,3.20
2011,07,07,03,30,4.80
2011,07,07,03,31,4.80
2011,07,07,03,32,4.80
2011,07,07,03,34,1.60
2011,07,07,03,35,6.40
2011,07,07,03,36,8.10
2011,07,07,03,37,8.10
2011,07,07,03,38,6.40
2011,07,07,03,39,6.40
2011,07,07,03,40,8.10
2011,07,07,03,41,8.10
2011,07,07,03,42,9.60
2011,07,07,03,43,8.10
2011,07,07,03,44,8.10
2011,07,07,03,45,8.10
2011,07,07,03,46,9.60
2011,07,07,03,47,4.80
2011,07,07,03,48,6.40
2011,07,07,03,49,1.60
2011,07,07,03,50,6.40
2011,07,07,03,51,4.80
2011,07,07,03,52,4.80
2011,07,07,03,53,4.80
2011,07,07,03,54,6.40
2011,07,07,03,55,4.80
2011,07,07,03,56,6.40
2011,07,07,03,57,4.80
2011,07,07,03,58,6.40
2011,07,07,03,59,6.40
2011,07,07,04,00,4.80
2011,07,07,04,01,4.80
2011,07,07,04,02,6.40
2011,07,07,04,03,4.80
2011,07,07,04,04,1.60
2011,07,07,04,05,6.40
2011,07,07,04,06,3.20
2011,07,07,04,07,4.80
2011,07,07,04,08,9.60
2011,07,07,04,09,9.60
2011,07,07,04,10,8.10
2011,07,07,04,11,11.30
2011,07,07,04,12,16.10
2011,07,07,04,13,17.70
2011,07,07,04,14,11.30
2011,07,07,04,15,8.10
2011,07,07,04,16,9.60
2011,07,07,04,17,9.60
2011,07,07,04,18,9.60
2011,07,07,04,19,8.10
2011,07,07,04,20,6.40
2011,07,07,04,21,8.10
2011,07,07,04,22,8.10
2011,07,07,04,23,6.40
2011,07,07,04,24,6.40
2011,07,07,04,25,9.60
2011,07,07,04,26,8.10
2011,07,07,04,27,11.30
2011,07,07,04,28,9.60
2011,07,07,04,29,11.30
2011,07,07,04,30,8.10
2011,07,07,04,31,6.40
2011,07,07,04,32,6.40
2011,07,07,04,33,4.80
2011,07,07,04,34,4.80
2011,07,07,04,35,4.80
2011,07,07,04,36,6.40
2011,07,07,04,37,1.60
2011,07,07,04,39,3.20
2011,07,07,04,40,1.60
2011,07,07,04,41,3.20
2011,07,07,04,42,3.20
2011,07,07,04,43,6.40
2011,07,07,04,44,6.40
2011,07,07,04,45,4.80
2011,07,07,04,46,6.40
2011,07,07,04,47,6.40
2011,07,07,04,48,6.40
2011,07,07,04,49,8.10
2011,07,07,04,50,9.60
2011,07,07,04,51,8.10
2011,07,07,04,52,8.10
2011,07,07,04,53,8.10
2011,07,07,04,54,8.10
2011,07,07,04,55,8.10
2011,07,07,04,56,8.10
2011,07,07,04,57,4.80
2011,07,07,04,58,3.20
2011,07,07,04,59,3.20
2011,07,07,05,00,4.80
2011,07,07,05,01,1.60
2011,07,07,05,03,3.20
2011,07,07,05,04,1.60
2011,07,07,05,09,6.40
2011,07,07,05,10,3.20
2011,07,07,05,12,4.80
2011,07,07,05,13,4.80
2011,07,07,05,14,6.40
2011,07,07,05,15,6.40
2011,07,07,05,16,4.80
2011,07,07,05,17,8.10
2011,07,07,05,18,1.60
2011,07,07,05,19,4.80
2011,07,07,05,20,3.20
2011,07,07,05,21,8.10
2011,07,07,05,22,6.40
2011,07,07,05,23,6.40
2011,07,07,05,24,3.20
2011,07,07,05,25,4.80
2011,07,07,05,26,8.10
2011,07,07,05,27,9.60
2011,07,07,05,28,11.30
2011,07,07,05,29,11.30
2011,07,07,05,30,9.60
2011,07,07,05,31,8.10
2011,07,07,05,32,6.40
2011,07,07,05,33,8.10
2011,07,07,05,34,9.60
2011,07,07,05,35,6.40
2011,07,07,05,36,6.40
2011,07,07,05,37,9.60
2011,07,07,05,38,9.60
2011,07,07,05,39,9.60
2011,07,07,05,40,8.10
2011,07,07,05,41,11.30
2011,07,07,05,42,8.10
2011,07,07,05,43,8.10
2011,07,07,05,44,9.60
2011,07,07,05,45,9.60
2011,07,07,05,46,4.80
2011,07,07,05,47,8.10
2011,07,07,05,48,6.40
2011,07,07,05,49,6.40
2011,07,07,05,50,6.40
2011,07,07,05,51,8.10
2011,07,07,05,52,6.40
2011,07,07,05,53,9.60
2011,07,07,05,54,6.40
2011,07,07,05,55,1.60
2011,07,07,05,56,6.40
2011,07,07,05,57,4.80
2011,07,07,05,58,3.20
2011,07,07,05,59,6.40
2011,07,07,06,00,6.40
2011,07,07,06,01,8.10
2011,07,07,06,02,6.40
2011,07,07,06,03,8.10
2011,07,07,06,04,4.80
2011,07,07,06,05,8.10
2011,07,07,06,06,8.10
2011,07,07,06,07,4.80
2011,07,07,06,08,4.80
2011,07,07,06,09,6.40
2011,07,07,06,10,6.40
2011,07,07,06,11,8.10
2011,07,07,06,12,6.40
2011,07,07,06,13,6.40
2011,07,07,06,14,4.80
2011,07,07,06,15,4.80
2011,07,07,06,16,6.40
2011,07,07,06,17,6.40
2011,07,07,06,18,6.40
2011,07,07,06,19,6.40
2011,07,07,06,20,6.40
2011,07,07,06,21,4.80
2011,07,07,06,22,4.80
2011,07,07,06,23,3.20
2011,07,07,06,24,3.20
2011,07,07,06,25,1.60
2011,07,07,06,29,3.20
2011,07,07,06,30,1.60
2011,07,07,06,31,8.10
2011,07,07,06,32,6.40
2011,07,07,06,33,8.10
2011,07,07,06,34,9.60
2011,07,07,06,35,11.30
2011,07,07,06,36,11.30
2011,07,07,06,37,14.50
2011,07,07,06,38,9.60
2011,07,07,06,39,8.10
2011,07,07,06,40,11.30
2011,07,07,06,41,14.50
2011,07,07,06,42,11.30
2011,07,07,06,43,16.10
2011,07,07,06,44,11.30
2011,07,07,06,45,20.90
2011,07,07,06,46,16.10
2011,07,07,06,47,16.10
2011,07,07,06,48,11.30
2011,07,07,06,49,20.90
2011,07,07,06,50,16.10
2011,07,07,06,51,19.30
2011,07,07,06,52,19.30
2011,07,07,06,53,19.30
2011,07,07,06,54,24.20
2011,07,07,06,55,19.30
2011,07,07,06,56,14.50
2011,07,07,06,57,16.10
2011,07,07,06,58,14.50
2011,07,07,06,59,17.70
2011,07,07,07,00,20.90
2011,07,07,07,01,20.90
2011,07,07,07,02,16.10
2011,07,07,07,03,17.70
2011,07,07,07,04,16.10
2011,07,07,07,05,17.70
2011,07,07,07,06,14.50
2011,07,07,07,07,16.10
2011,07,07,07,08,16.10
2011,07,07,07,09,17.70
2011,07,07,07,10,12.90
2011,07,07,07,11,17.70
2011,07,07,07,12,20.90
2011,07,07,07,13,14.50
2011,07,07,07,14,16.10
2011,07,07,07,15,11.30
2011,07,07,07,16,17.70
2011,07,07,07,17,16.10
2011,07,07,07,18,11.30
2011,07,07,07,19,16.10
2011,07,07,07,20,19.30
2011,07,07,07,21,16.10
2011,07,07,07,22,16.10
2011,07,07,07,23,14.50
2011,07,07,07,24,17.70
2011,07,07,07,25,14.50
2011,07,07,07,26,11.30
2011,07,07,07,27,8.10
2011,07,07,07,28,12.90
2011,07,07,07,29,14.50
2011,07,07,07,30,24.20
2011,07,07,07,31,19.30
2011,07,07,07,32,14.50
2011,07,07,07,33,19.30
2011,07,07,07,34,20.90
2011,07,07,07,35,24.20
2011,07,07,07,36,19.30
2011,07,07,07,37,17.70
2011,07,07,07,38,22.50
2011,07,07,07,39,17.70
2011,07,07,07,40,17.70
2011,07,07,07,41,17.70
2011,07,07,07,42,22.50
2011,07,07,07,43,17.70
2011,07,07,07,44,20.90
2011,07,07,07,45,20.90
2011,07,07,07,46,16.10
2011,07,07,07,47,17.70
2011,07,07,07,48,14.50
2011,07,07,07,49,17.70
2011,07,07,07,50,19.30
2011,07,07,07,51,17.70
2011,07,07,07,52,19.30
2011,07,07,07,53,16.10
2011,07,07,07,54,24.20
2011,07,07,07,55,19.30
2011,07,07,07,56,17.70
2011,07,07,07,57,19.30
2011,07,07,07,58,17.70
2011,07,07,07,59,16.10
2011,07,07,08,00,17.70
2011,07,07,08,01,17.70
2011,07,07,08,02,22.50
2011,07,07,08,03,20.90
2011,07,07,08,04,14.50
2011,07,07,08,05,19.30
2011,07,07,08,06,11.30
2011,07,07,08,07,25.70
2011,07,07,08,08,19.30
2011,07,07,08,09,17.70
2011,07,07,08,10,14.50
2011,07,07,08,11,22.50
2011,07,07,08,12,24.20
2011,07,07,08,13,17.70
2011,07,07,08,14,12.90
2011,07,07,08,15,16.10
2011,07,07,08,16,19.30
2011,07,07,08,17,22.50
2011,07,07,08,18,17.70
2011,07,07,08,19,14.50
2011,07,07,08,20,16.10
2011,07,07,08,21,14.50
2011,07,07,08,22,16.10
2011,07,07,08,23,19.30
2011,07,07,08,24,14.50
2011,07,07,08,25,16.10
2011,07,07,08,26,16.10
2011,07,07,08,27,25.70
2011,07,07,08,28,20.90
2011,07,07,08,29,27.40
2011,07,07,08,30,17.70
2011,07,07,08,31,20.90
2011,07,07,08,32,20.90
2011,07,07,08,33,16.10
2011,07,07,08,34,17.70
2011,07,07,08,35,24.20
2011,07,07,08,36,16.10
2011,07,07,08,37,14.50
2011,07,07,08,38,17.70
2011,07,07,08,39,17.70
2011,07,07,08,40,17.70
2011,07,07,08,41,22.50
2011,07,07,08,42,19.30
2011,07,07,08,43,22.50
2011,07,07,08,44,22.50
2011,07,07,08,45,19.30
2011,07,07,08,46,22.50
2011,07,07,08,47,24.20
2011,07,07,08,48,20.90
2011,07,07,08,49,16.10
2011,07,07,08,50,16.10
2011,07,07,08,51,17.70
2011,07,07,08,52,20.90
2011,07,07,08,53,14.50
2011,07,07,08,54,12.90
2011,07,07,08,55,19.30
2011,07,07,08,56,20.90
2011,07,07,08,57,22.50
2011,07,07,08,58,16.10
2011,07,07,08,59,19.30
2011,07,07,09,00,19.30
2011,07,07,09,01,20.90
2011,07,07,09,02,16.10
2011,07,07,09,03,20.90
2011,07,07,09,04,19.30
2011,07,07,09,05,25.70
2011,07,07,09,06,24.20
2011,07,07,09,07,17.70
2011,07,07,09,08,17.70
2011,07,07,09,09,17.70
2011,07,07,09,10,17.70
2011,07,07,09,11,22.50
2011,07,07,09,12,20.90
2011,07,07,09,13,20.90
2011,07,07,09,14,12.90
2011,07,07,09,15,19.30
2011,07,07,09,16,20.90
2011,07,07,09,17,22.50
2011,07,07,09,18,11.30
2011,07,07,09,19,14.50
2011,07,07,09,20,14.50
2011,07,07,09,21,20.90
2011,07,07,09,22,20.90
2011,07,07,09,23,27.40
2011,07,07,09,24,20.90
2011,07,07,09,25,17.70
2011,07,07,09,26,19.30
2011,07,07,09,27,20.90
2011,07,07,09,28,17.70
2011,07,07,09,29,22.50
2011,07,07,09,30,24.20
2011,07,07,09,31,16.10
2011,07,07,09,32,17.70
2011,07,07,09,33,19.30
2011,07,07,09,34,19.30
2011,07,07,09,35,17.70
2011,07,07,09,36,19.30
2011,07,07,09,37,19.30
2011,07,07,09,38,19.30
2011,07,07,09,39,20.90
2011,07,07,09,40,17.70
2011,07,07,09,41,25.70
2011,07,07,09,42,22.50
2011,07,07,09,43,24.20
2011,07,07,09,44,22.50
2011,07,07,09,45,24.20
2011,07,07,09,46,22.50
2011,07,07,09,47,17.70
2011,07,07,09,48,25.70
2011,07,07,09,49,29.00
2011,07,07,09,50,24.20
2011,07,07,09,51,19.30
2011,07,07,09,52,20.90
2011,07,07,09,53,20.90
2011,07,07,09,54,24.20
2011,07,07,09,55,24.20
2011,07,07,09,56,19.30
2011,07,07,09,57,19.30
2011,07,07,09,58,16.10
2011,07,07,09,59,16.10
2011,07,07,10,00,17.70
2011,07,07,10,01,19.30
2011,07,07,10,02,9.60
2011,07,07,10,03,20.90
2011,07,07,10,04,24.20
2011,07,07,10,05,22.50
2011,07,07,10,06,17.70
2011,07,07,10,07,17.70
2011,07,07,10,08,16.10
2011,07,07,10,09,27.40
2011,07,07,10,10,24.20
2011,07,07,10,11,19.30
2011,07,07,10,12,27.40
2011,07,07,10,13,19.30
2011,07,07,10,14,22.50
2011,07,07,10,15,16.10
2011,07,07,10,16,24.20
2011,07,07,10,17,24.20
2011,07,07,10,18,17.70
2011,07,07,10,19,22.50
2011,07,07,10,20,22.50
2011,07,07,10,21,20.90
2011,07,07,10,22,24.20
2011,07,07,10,23,32.20
2011,07,07,10,24,25.70
2011,07,07,10,25,25.70
2011,07,07,10,26,25.70
2011,07,07,10,27,32.20
2011,07,07,10,28,17.70
2011,07,07,10,29,27.40
2011,07,07,10,30,27.40
2011,07,07,10,31,29.00
2011,07,07,10,32,27.40
2011,07,07,10,33,30.60
2011,07,07,10,34,27.40
2011,07,07,10,35,22.50
2011,07,07,10,36,16.10
2011,07,07,10,37,19.30
2011,07,07,10,38,17.70
2011,07,07,10,39,22.50
2011,07,07,10,40,19.30
2011,07,07,10,41,17.70
2011,07,07,10,42,16.10
2011,07,07,10,43,20.90
2011,07,07,10,44,22.50
2011,07,07,10,45,17.70
2011,07,07,10,46,17.70
2011,07,07,10,47,17.70
2011,07,07,10,48,24.20
2011,07,07,10,49,32.20
2011,07,07,10,50,29.00
2011,07,07,10,51,19.30
2011,07,07,10,52,29.00
2011,07,07,10,53,30.60
2011,07,07,10,54,35.40
2011,07,07,10,55,27.40
2011,07,07,10,56,30.60
2011,07,07,10,57,25.70
2011,07,07,10,58,27.40
2011,07,07,10,59,27.40
2011,07,07,11,00,25.70
2011,07,07,11,01,25.70
2011,07,07,11,02,20.90
2011,07,07,11,03,22.50
2011,07,07,11,04,35.40
2011,07,07,11,05,24.20
2011,07,07,11,06,25.70
2011,07,07,11,07,25.70
2011,07,07,11,08,32.20
2011,07,07,11,09,29.00
2011,07,07,11,10,32.20
2011,07,07,11,11,24.20
2011,07,07,11,12,35.40
2011,07,07,11,13,27.40
2011,07,07,11,14,25.70
2011,07,07,11,15,25.70
2011,07,07,11,16,30.60
2011,07,07,11,17,30.60
2011,07,07,11,18,30.60
2011,07,07,11,19,29.00
2011,07,07,11,20,25.70
2011,07,07,11,21,29.00
2011,07,07,11,22,29.00
2011,07,07,11,23,24.20
2011,07,07,11,24,29.00
2011,07,07,11,25,29.00
2011,07,07,11,26,33.80
2011,07,07,11,27,24.20
2011,07,07,11,28,20.90
2011,07,07,11,29,27.40
2011,07,07,11,30,27.40
2011,07,07,11,31,24.20
2011,07,07,11,32,20.90
2011,07,07,11,33,25.70
2011,07,07,11,34,24.20
2011,07,07,11,35,29.00
2011,07,07,11,36,27.40
2011,07,07,11,37,27.40
2011,07,07,11,38,33.80
2011,07,07,11,39,32.20
2011,07,07,11,40,30.60
2011,07,07,11,41,29.00
2011,07,07,11,42,24.20
2011,07,07,11,43,29.00
2011,07,07,11,44,25.70
2011,07,07,11,45,27.40
2011,07,07,11,46,27.40
2011,07,07,11,47,29.00
2011,07,07,11,48,22.50
2011,07,07,11,49,24.20
2011,07,07,11,50,33.80
2011,07,07,11,51,30.60
2011,07,07,11,52,40.20
2011,07,07,11,53,30.60
2011,07,07,11,54,30.60
2011,07,07,11,55,25.70
2011,07,07,11,56,33.80
2011,07,07,11,57,29.00
2011,07,07,11,58,30.60
2011,07,07,11,59,29.00
2011,07,07,12,00,32.20
2011,07,07,12,01,33.80
2011,07,07,12,02,37.00
2011,07,07,12,03,37.00
2011,07,07,12,04,40.20
2011,07,07,12,05,32.20
2011,07,07,12,06,35.40
2011,07,07,12,07,32.20
2011,07,07,12,08,32.20
2011,07,07,12,09,37.00
2011,07,07,12,10,35.40
2011,07,07,12,11,27.40
2011,07,07,12,12,29.00
2011,07,07,12,13,24.20
2011,07,07,12,14,30.60
2011,07,07,12,15,29.00
2011,07,07,12,16,27.40
2011,07,07,12,17,27.40
2011,07,07,12,18,32.20
2011,07,07,12,19,27.40
2011,07,07,12,20,35.40
2011,07,07,12,21,32.20
2011,07,07,12,22,38.60
2011,07,07,12,23,32.20
2011,07,07,12,24,37.00
2011,07,07,12,25,41.80
2011,07,07,12,26,43.50
2011,07,07,12,27,33.80
2011,07,07,12,28,22.50
2011,07,07,12,29,16.10
2011,07,07,12,30,20.90
2011,07,07,12,31,27.40
2011,07,07,12,32,25.70
2011,07,07,12,33,24.20
2011,07,07,12,34,27.40
2011,07,07,12,35,43.50
2011,07,07,12,36,32.20
2011,07,07,12,37,27.40
2011,07,07,12,38,32.20
2011,07,07,12,39,25.70
2011,07,07,12,40,35.40
2011,07,07,12,41,29.00
2011,07,07,12,42,29.00
2011,07,07,12,43,25.70
2011,07,07,12,44,27.40
2011,07,07,12,45,29.00
2011,07,07,12,46,33.80
2011,07,07,12,47,30.60
2011,07,07,12,48,29.00
2011,07,07,12,49,35.40
2011,07,07,12,50,27.40
2011,07,07,12,51,41.80
2011,07,07,12,52,32.20
2011,07,07,12,53,25.70
2011,07,07,12,54,22.50
2011,07,07,12,55,35.40
2011,07,07,12,56,27.40
2011,07,07,12,57,40.20
2011,07,07,12,58,38.60
2011,07,07,12,59,35.40
2011,07,07,13,00,43.50
2011,07,07,13,01,35.40
2011,07,07,13,02,45.10
2011,07,07,13,03,38.60
2011,07,07,13,04,24.20
2011,07,07,13,05,30.60
2011,07,07,13,06,27.40
2011,07,07,13,07,24.20
2011,07,07,13,08,40.20
2011,07,07,13,09,38.60
2011,07,07,13,10,27.40
2011,07,07,13,11,24.20
2011,07,07,13,12,29.00
2011,07,07,13,13,35.40
2011,07,07,13,14,25.70
2011,07,07,13,15,37.00
2011,07,07,13,16,37.00
2011,07,07,13,17,37.00
2011,07,07,13,18,35.40
2011,07,07,13,19,32.20
2011,07,07,13,20,30.60
2011,07,07,13,21,33.80
2011,07,07,13,22,32.20
2011,07,07,13,23,32.20
2011,07,07,13,24,35.40
2011,07,07,13,25,30.60
2011,07,07,13,26,33.80
2011,07,07,13,27,35.40
2011,07,07,13,28,38.60
2011,07,07,13,29,41.80
2011,07,07,13,30,30.60
2011,07,07,13,31,33.80
2011,07,07,13,32,24.20
2011,07,07,13,33,35.40
2011,07,07,13,34,35.40
2011,07,07,13,35,38.60
2011,07,07,13,36,27.40
2011,07,07,13,37,30.60
2011,07,07,13,38,33.80
2011,07,07,13,39,37.00
2011,07,07,13,40,30.60
2011,07,07,13,41,35.40
2011,07,07,13,42,38.60
2011,07,07,13,43,38.60
2011,07,07,13,44,49.90
2011,07,07,13,45,43.50
2011,07,07,13,46,43.50
2011,07,07,13,47,43.50
2011,07,07,13,48,38.60
2011,07,07,13,49,38.60
2011,07,07,13,50,43.50
2011,07,07,13,51,43.50
2011,07,07,13,52,33.80
2011,07,07,13,53,37.00
2011,07,07,13,54,30.60
2011,07,07,13,55,35.40
2011,07,07,13,56,27.40
2011,07,07,13,57,25.70
2011,07,07,13,58,25.70
2011,07,07,13,59,29.00
2011,07,07,14,00,30.60
2011,07,07,14,01,25.70
2011,07,07,14,02,45.10
2011,07,07,14,03,53.10
2011,07,07,14,04,46.70
2011,07,07,14,05,45.10
2011,07,07,14,06,38.60
2011,07,07,14,07,33.80
2011,07,07,14,08,33.80
2011,07,07,14,09,37.00
2011,07,07,14,10,46.70
2011,07,07,14,11,32.20
2011,07,07,14,12,38.60
2011,07,07,14,13,33.80
2011,07,07,14,14,30.60
2011,07,07,14,15,30.60
2011,07,07,14,16,33.80
2011,07,07,14,17,30.60
2011,07,07,14,18,33.80
2011,07,07,14,19,38.60
2011,07,07,14,20,37.00
2011,07,07,14,21,33.80
2011,07,07,14,22,27.40
2011,07,07,14,23,24.20
2011,07,07,14,24,41.80
2011,07,07,14,25,32.20
2011,07,07,14,26,40.20
2011,07,07,14,27,35.40
2011,07,07,14,28,41.80
2011,07,07,14,29,30.60
2011,07,07,14,30,43.50
2011,07,07,14,31,43.50
2011,07,07,14,32,38.60
2011,07,07,14,33,40.20
2011,07,07,14,34,43.50
2011,07,07,14,35,20.90
2011,07,07,14,36,35.40
2011,07,07,14,37,38.60
2011,07,07,14,38,35.40
2011,07,07,14,39,33.80
2011,07,07,14,40,45.10
2011,07,07,14,41,40.20
2011,07,07,14,42,41.80
2011,07,07,14,43,41.80
2011,07,07,14,44,43.50
2011,07,07,14,45,48.30
2011,07,07,14,46,35.40
2011,07,07,14,47,48.30
2011,07,07,14,48,37.00
2011,07,07,14,49,37.00
2011,07,07,14,50,22.50
2011,07,07,14,51,35.40
2011,07,07,14,52,24.20
2011,07,07,14,53,25.70
2011,07,07,14,54,40.20
2011,07,07,14,55,40.20
2011,07,07,14,56,43.50
2011,07,07,14,57,37.00
2011,07,07,14,58,30.60
2011,07,07,14,59,37.00
2011,07,07,15,00,37.00
2011,07,07,15,01,41.80
2011,07,07,15,02,38.60
2011,07,07,15,03,35.40
2011,07,07,15,04,29.00
2011,07,07,15,05,24.20
2011,07,07,15,06,33.80
2011,07,07,15,07,29.00
2011,07,07,15,08,27.40
2011,07,07,15,09,24.20
2011,07,07,15,10,40.20
2011,07,07,15,11,37.00
2011,07,07,15,12,38.60
2011,07,07,15,13,46.70
2011,07,07,15,14,35.40
2011,07,07,15,15,45.10
2011,07,07,15,16,38.60
2011,07,07,15,17,37.00
2011,07,07,15,18,46.70
2011,07,07,15,19,32.20
2011,07,07,15,20,43.50
2011,07,07,15,21,33.80
2011,07,07,15,22,38.60
2011,07,07,15,23,40.20
2011,07,07,15,24,32.20
2011,07,07,15,25,32.20
2011,07,07,15,26,41.80
2011,07,07,15,27,30.60
2011,07,07,15,28,45.10
2011,07,07,15,29,49.90
2011,07,07,15,30,41.80
2011,07,07,15,31,41.80
2011,07,07,15,32,41.80
2011,07,07,15,33,27.40
2011,07,07,15,34,30.60
2011,07,07,15,35,35.40
2011,07,07,15,36,40.20
2011,07,07,15,37,35.40
2011,07,07,15,38,35.40
2011,07,07,15,39,49.90
2011,07,07,15,40,37.00
2011,07,07,15,41,41.80
2011,07,07,15,42,41.80
2011,07,07,15,43,40.20
2011,07,07,15,44,40.20
2011,07,07,15,45,45.10
2011,07,07,15,46,37.00
2011,07,07,15,47,41.80
2011,07,07,15,48,37.00
2011,07,07,15,49,27.40
2011,07,07,15,50,22.50
2011,07,07,15,51,25.70
2011,07,07,15,52,30.60
2011,07,07,15,53,38.60
2011,07,07,15,54,33.80
2011,07,07,15,55,33.80
2011,07,07,15,56,27.40
2011,07,07,15,57,30.60
2011,07,07,15,58,30.60
2011,07,07,15,59,25.70
2011,07,07,16,00,25.70
2011,07,07,16,01,25.70
2011,07,07,16,02,29.00
2011,07,07,16,03,29.00
2011,07,07,16,04,27.40
2011,07,07,16,05,22.50
2011,07,07,16,06,40.20
2011,07,07,16,07,41.80
2011,07,07,16,08,37.00
2011,07,07,16,09,57.90
2011,07,07,16,10,40.20
2011,07,07,16,11,41.80
2011,07,07,16,12,45.10
2011,07,07,16,13,49.90
2011,07,07,16,14,45.10
2011,07,07,16,15,30.60
2011,07,07,16,16,38.60
2011,07,07,16,17,40.20
2011,07,07,16,18,33.80
2011,07,07,16,19,40.20
2011,07,07,16,20,38.60
2011,07,07,16,21,37.00
2011,07,07,16,22,33.80
2011,07,07,16,23,48.30
2011,07,07,16,24,51.50
2011,07,07,16,25,43.50
2011,07,07,16,26,49.90
2011,07,07,16,27,41.80
2011,07,07,16,28,41.80
2011,07,07,16,29,45.10
2011,07,07,16,30,49.90
2011,07,07,16,31,35.40
2011,07,07,16,32,25.70
2011,07,07,16,33,37.00
2011,07,07,16,34,40.20
2011,07,07,16,35,45.10
2011,07,07,16,36,66.00
2011,07,07,16,37,56.30
2011,07,07,16,38,40.20
2011,07,07,16,39,33.80
2011,07,07,16,40,32.20
2011,07,07,16,41,40.20
2011,07,07,16,42,48.30
2011,07,07,16,43,41.80
2011,07,07,16,44,45.10
2011,07,07,16,45,46.70
2011,07,07,16,46,45.10
2011,07,07,16,47,51.50
2011,07,07,16,48,48.30
2011,07,07,16,49,56.30
2011,07,07,16,50,29.00
2011,07,07,16,51,30.60
2011,07,07,16,52,38.60
2011,07,07,16,53,48.30
2011,07,07,16,54,25.70
2011,07,07,16,55,37.00
2011,07,07,16,56,38.60
2011,07,07,16,57,30.60
2011,07,07,16,58,30.60
2011,07,07,16,59,32.20
2011,07,07,17,00,38.60
2011,07,07,17,01,38.60
2011,07,07,17,02,37.00
2011,07,07,17,03,32.20
2011,07,07,17,04,30.60
2011,07,07,17,05,43.50
2011,07,07,17,06,41.80
2011,07,07,17,07,41.80
2011,07,07,17,08,35.40
2011,07,07,17,09,32.20
2011,07,07,17,10,37.00
2011,07,07,17,11,43.50
2011,07,07,17,12,32.20
2011,07,07,17,13,38.60
2011,07,07,17,14,24.20
2011,07,07,17,15,46.70
2011,07,07,17,16,40.20
2011,07,07,17,17,40.20
2011,07,07,17,18,45.10
2011,07,07,17,19,41.80
2011,07,07,17,20,40.20
2011,07,07,17,21,38.60
2011,07,07,17,22,30.60
2011,07,07,17,23,43.50
2011,07,07,17,24,41.80
2011,07,07,17,25,27.40
2011,07,07,17,26,30.60
2011,07,07,17,27,40.20
2011,07,07,17,28,38.60
2011,07,07,17,29,43.50
2011,07,07,17,30,45.10
2011,07,07,17,31,29.00
2011,07,07,17,32,25.70
2011,07,07,17,33,32.20
2011,07,07,17,34,43.50
2011,07,07,17,35,37.00
2011,07,07,17,36,37.00
2011,07,07,17,37,32.20
2011,07,07,17,38,29.00
2011,07,07,17,39,33.80
2011,07,07,17,40,24.20
2011,07,07,17,41,32.20
2011,07,07,17,42,27.40
2011,07,07,17,43,27.40
2011,07,07,17,44,32.20
2011,07,07,17,45,27.40
2011,07,07,17,46,32.20
2011,07,07,17,47,43.50
2011,07,07,17,48,45.10
2011,07,07,17,49,33.80
2011,07,07,17,50,35.40
2011,07,07,17,51,37.00
2011,07,07,17,52,35.40
2011,07,07,17,53,29.00
2011,07,07,17,54,20.90
2011,07,07,17,55,20.90
2011,07,07,17,56,37.00
2011,07,07,17,57,27.40
2011,07,07,17,58,40.20
2011,07,07,17,59,33.80
2011,07,07,18,00,35.40
2011,07,07,18,01,20.90
2011,07,07,18,02,48.30
2011,07,07,18,03,35.40
2011,07,07,18,04,37.00
2011,07,07,18,05,30.60
2011,07,07,18,06,53.10
2011,07,07,18,07,38.60
2011,07,07,18,08,30.60
2011,07,07,18,09,24.20
2011,07,07,18,10,24.20
2011,07,07,18,11,19.30
2011,07,07,18,12,37.00
2011,07,07,18,13,38.60
2011,07,07,18,14,27.40
2011,07,07,18,15,27.40
2011,07,07,18,16,19.30
2011,07,07,18,17,22.50
2011,07,07,18,18,33.80
2011,07,07,18,19,25.70
2011,07,07,18,20,29.00
2011,07,07,18,21,17.70
2011,07,07,18,22,22.50
2011,07,07,18,23,37.00
2011,07,07,18,24,30.60
2011,07,07,18,25,43.50
2011,07,07,18,26,33.80
2011,07,07,18,27,33.80
2011,07,07,18,28,16.10
2011,07,07,18,29,33.80
2011,07,07,18,30,43.50
2011,07,07,18,31,35.40
2011,07,07,18,32,24.20
2011,07,07,18,33,19.30
2011,07,07,18,34,30.60
2011,07,07,18,35,40.20
2011,07,07,18,36,35.40
2011,07,07,18,37,37.00
2011,07,07,18,38,41.80
2011,07,07,18,39,25.70
2011,07,07,18,40,38.60
2011,07,07,18,41,37.00
2011,07,07,18,42,43.50
2011,07,07,18,43,22.50
2011,07,07,18,44,16.10
2011,07,07,18,45,30.60
2011,07,07,18,46,24.20
2011,07,07,18,47,33.80
2011,07,07,18,48,27.40
2011,07,07,18,49,30.60
2011,07,07,18,50,35.40